パンスターズ彗星

C/2017 U5 ( PanSTARRS )

English version
Home page
Updated on May 19, 2019

---------------------------------------------------------------------

・ プロフィール

発見日 2017年10月30日
発見光度 21.3等
発見者 Pan-STARRS 1 telescope (Haleakala)

・ 軌道要素

Epoch 2018 Jan. 2.0 TT = JDT 2458120.5
T 2017 Dec. 19.09608 TT                                 MPCW
q   4.3267656            (2000.0)            P               Q
n   0.01413967     Peri.  262.14962     +0.40282783     -0.91039926
a  16.9372630      Node   163.11468     +0.91414022     +0.39505088
e   0.7445416      Incl.   18.95656     +0.04557849     +0.12291455
P  69.71
From 90 observations 2017 Oct. 30-2018 Feb. 15, mean residual 0".4.

・ 光度変化

        m1 = 11.0 + 5 logΔ + 10.0 log r

---------------------------------------------------------------------

軌道要素はM.P.E.C. 2019-J142に掲載されたものです。
光度グラフはComet for Windowsで作成したものです。

---------------------------------------------------------------------

Copyright(C) Seiichi Yoshida (comet@aerith.net). All rights reserved.